Regional Weather Roundup
Issued by NWS Upton, NY

Current Version | Previous Version | Graphics & Text | Print | Product List | Glossary Off
Versions: 1 2 3 4 5 6 7 8 9 10 11 12 13 14 15 16 17 18 19 20 21 22 23 24 25 26 27 28 29 30 31 32 33 34 35 36 37 38 39 40 41 42 43 44 45 46 47 48 49 50

000
ASUS41 KOKX 192109
RWROKX

REGIONAL WEATHER ROUNDUP
NATIONAL WEATHER SERVICE NEW YORK NY
500 PM EDT TUE SEP 19 2017

NOTE: "FAIR" INDICATES FEW OR NO CLOUDS BELOW 12,000 FEET WITH NO
SIGNIFICANT WEATHER AND/OR OBSTRUCTIONS TO VISIBILITY.

NYZ071-072-176-178-NJZ106-104-192200-
NEW YORK CITY METRO AREA

CITY           SKY/WX    TMP DP  RH WIND       PRES   REMARKS
Central Park   CLOUDY    70  67  90 MISG      29.93F
Bronx Bot Gard   N/A     70  66  88 NW2       29.93R
LaGuardia APRT LGT RAIN  73  67  81 N16G22    29.89F
Kennedy INTL   CLOUDY    72  66  81 N18G28    29.89R
Breezy Point     N/A     70 N/A N/A N16G26      N/A
Newark/Liberty LGT RAIN  72  67  84 N16       29.89F
Teterboro      LGT RAIN  74  67  78 N9        29.89F
$$

NYZ177-179-078>081-192200-
LONG ISLAND NEW YORK

CITY           SKY/WX    TMP DP  RH WIND       PRES   REMARKS
Jones Beach      N/A     70 N/A N/A NE26G33     N/A
Matinecock PT    N/A     72 N/A N/A NE24G30     N/A
Farmingdale    CLOUDY    70  67  90 N17G26    29.87F
MacArthur/ISP  DRIZZLE   71  68  90 N17G30    29.87S
Shirley        LGT RAIN  72  68  87 N14G25    29.87F
Mt Sinai Harb    N/A    N/A N/A N/A N16G22      N/A
Westhampton    LGT RAIN  69  65  86 N18G26    29.88S
East Hampton   LGT RAIN  67  65  93 NE13G18   29.87F
Montauk          N/A     68  67  96 NE14G25   29.89S
$$

NYZ052-065-067-192200-
HUDSON VALLEY

CITY           SKY/WX    TMP DP  RH WIND       PRES   REMARKS
White Plains   PTSUNNY   72  65  78 N15G22    29.92F
Larchmont Harb   N/A     72 N/A N/A N20G26      N/A
Croton On Huds   N/A     75 N/A N/A E7          N/A
Newburgh       PTSUNNY   77  64  65 NE16      29.96F
Montgomery     CLOUDY    76  64  66 NE9       29.95F
Poughkeepsie   CLOUDY    78  61  55 NE10      29.94S
Albany         PTSUNNY   79  60  52 E8        30.00S
$$

NJZ001-105-106-008-010-013-015-019>022-104-192200-
NEW JERSEY

CITY           SKY/WX    TMP DP  RH WIND       PRES   REMARKS
Newark/Liberty LGT RAIN  72  67  84 N16       29.89F
Teterboro      LGT RAIN  74  67  78 N9        29.89F
Caldwell       CLOUDY    76  65  68 NE8       29.92S
Somerville     NOT AVBL
Linden         CLOUDY    75  64  68 NE15G24   29.90S
Perth Amboy      N/A     72 N/A N/A NE13G18     N/A
Sussex         MOSUNNY   76  64  66 NE8       29.94F
Andover          N/A     76  65  68 CALM      29.94F
Trenton        CLOUDY    77  64  64 NE10G20   29.88S
Millville      CLOUDY    74  68  81 N15G26    29.86R
Atlantic City  CLOUDY    69  67  93 N17G26    29.83S FOG
Wrightstown    LGT RAIN  69  67  93 N13       29.85S
Toms River     LGT RAIN  68  66  93 N17G24    29.86R FOG
Belmar         HVY RAIN  68  66  93 N14G22    29.88R FOG
$$

PAZ047>061-062-071-192200-
EASTERN PENNSYLVANIA

CITY           SKY/WX    TMP DP  RH WIND       PRES   REMARKS
Philadelphia   CLOUDY    78  63  59 N14G26    29.88S
Allentown      SUNNY     81  64  56 NE12      29.93S
Scranton       SUNNY     83  57  41 NE9       29.97S
$$

CTZ002-004>006-009-010-012-RIZ004-006-007-MAZ004-011-015-192200-
SOUTHERN NEW ENGLAND
 IN CT

CITY           SKY/WX    TMP DP  RH WIND       PRES   REMARKS
Bradley INTL   CLOUDY    72  65  78 N14       29.98S
Hartford       CLOUDY    73  65  75 N10       29.96S
Danbury        LGT RAIN  70  66  87 NE10      29.96F
Wtrbury/Oxford LGT RAIN  67  65  93 N14G20    29.96F
Norwalk Harbor   N/A     70 N/A N/A N20G26      N/A
Bridgeport     LGT RAIN  71  66  84 N17       29.90F
Meriden        CLOUDY    71  64  78 N12       29.94F
New Haven      CLOUDY    71  66  84 N17G24    29.91F
Chester        MOCLDY    72  66  83 N14G20    29.93F
Groton         RAIN      71  65  81 NE20G29   29.90S
Wilimantic     CLOUDY    71  66  84 NE18      29.96S

 IN RI

CITY           SKY/WX    TMP DP  RH WIND       PRES   REMARKS
Providence     CLOUDY    67  65  93 NE21G29   29.97F
Block Island   RAIN      66  65  96 N22G32    29.89F FOG
Westerly       LGT RAIN  69  67  93 N12G23    29.92S
 IN MA

CITY           SKY/WX    TMP DP  RH WIND       PRES   REMARKS
Boston         FOG       64  63  96 N15       30.02F VSB 1/2
Worcester      FOG       64  62  93 NE10G20   30.03F VSB 1/8
Westfield      CLOUDY    73  64  73 NE8       30.00R
Provincetown   LGT RAIN  64  63  96 NE14      29.98F VSB 1
Nantucket      CLOUDY    67  67 100 NE20G32   29.89F
$$

ANZ330-335-338-340-345-350-353-355-192200-
COASTAL MARINE OBSERVATIONS


STATION/POSITION TIME  SKY/WX   TEMP    WIND        PRES    VSBY  WAVE
                                AIR SEA DIR/SP/G                  HT/PER
                 (UTC)          (F)     (DEG/KT/KT) (MB)    (MI)  (FT/S)
NY HARB ENTRANCE 1950            71 70   10/ 23/ 31 1009.5          9/13
20 S FIRE ISLAND 1950            69 68   30/ 27/ 33 1009.0         12/12
GREAT SOUTH BAY  2030            71 72   20/ 19/ 25   N/A
23 SSW MONTAUK P 1950            68 67              1009.8         13/12
15 E BARNEGAT LI 2000               70                N/A          13/11
HUDSON CANYON    1950            69 70   30/ 31/ 39 1004.3         18/13
KINGS POINT      2030            71 71   60/ 12/ 18 1013.0
EXECUTION ROCKS  2045            72      40/ 17/ 23   N/A
WESTERN LI SOUND NOT AVBL
CENTRAL LI SOUND NOT AVBL
EASTERN LI SOUND NOT AVBL
ROBBINS REEF     2030            72      10/ 23/ 26 1012.7
$$


>>>>>>>>>>>>>>>>>>>>>>>>>>>> KEY <<<<<<<<<<<<<<<<<<<<<<<<<<<
>                                                          <
>     SKY/WX - Sky Condition/Present Weather               <
>     TMP    - Temperature in Fahrenheit                   <
>     DP     - Dew Point in Fahrenheit                     <
>     RH     - Relative Humidity in Percent                <
>     WIND   - Direction (from) and Speed in MPH           <
>     PRES   - Mean Sea Level Pressure (inches of Hg)      <
>     WCI    - Wind Chill Index                            <
>     VSB    - VISIBILITY IN MILES                         <
>     HX     - HEAT INDEX                                  <
>     TC     - TEMPERATURE IN CELSIUS                      <
>     VRB    - VARIABLE WIND DIRECTION                     <
>                                                          <
>>>>>>>>>>>>>>>>>>>>>>>>>>>> KEY <<<<<<<<<<<<<<<<<<<<<<<<<<<



USA.gov is the U.S. government's official web portal to all federal, state and local government web resources and services.